Temperature
1 1 1 1 1 0 1 1 1 2 2 3 3 2 3 4 4 3 4 4 4 3 4 4 4 3 3 3 3 3 3 3 3 3 2 2 2 2 2 2 2 2 2 2
0 1 1 1 1 0 1 1 1 1 2 2 2 3 3 3 3 3 3 4 3 3 3 3 3 3 3 3 3 2 2 2 2 2 2 2 2 2 2 2 2 2 2 2
1 -0 1 1 1 0 0 -0 0 2 3 2 1 1 2 3 3 3 3 3 3 3 3 3 3 3 3 2 2 2 2 2 2 2 2 1 1 1 1 1 1 1 1 1
-0 -0 1 2 1 0 0 0 -0 0 1 1 1 2 3 3 3 3 4 3 3 3 3 3 3 2 2 2 2 2 2 2 1 1 1 1 1 1 1 1 1 1 1 1
-1 -1 0 1 0 -1 -0 0 -0 -0 0 1 1 1 2 3 3 3 4 3 3 3 3 3 2 2 2 2 2 1 1 1 1 1 1 1 1 0 0 0 0 0 0 0
-2 -1 1 2 0 -0 0 1 0 -0 -0 -0 -0 -0 1 3 3 3 3 3 3 3 3 2 2 2 2 2 1 1 1 1 1 1 0 0 0 0 -0 -0 -0 -0 -0 -0
-2 -1 -0 0 -1 0 1 2 1 1 0 0 -1 1 2 2 3 3 3 3 3 2 2 2 2 2 1 1 1 1 1 1 0 0 0 -0 -0 -0 -0 -1 -1 -1 -1 -1
-2 -2 -0 -1 -1 -0 1 1 1 1 1 1 1 1 2 2 2 2 2 2 2 2 2 2 1 1 1 1 1 0 0 0 0 -0 -0 -1 -1 -1 -1 -1 -1 -1 -1 -1
-2 -0 0 -0 0 1 1 1 1 1 1 1 1 1 1 1 1 1 1 1 1 1 1 1 1 1 0 0 0 0 -0 -0 -0 -1 -1 -1 -1 -1 -1 -2 -2 -2 -2 -2
-3 -2 -1 -0 0 1 1 1 1 1 1 1 1 1 1 1 1 1 1 1 1 1 1 1 0 0 0 -0 -0 -0 -0 -1 -1 -1 -1 -1 -2 -2 -2 -2 -2 -2 -2 -2
-3 -3 -2 0 1 1 1 1 1 1 1 0 0 1 1 0 0 0 0 0 -0 0 0 -0 -0 -0 -0 -0 -1 -1 -1 -1 -1 -1 -1 -2 -2 -2 -2 -2 -3 -3 -3 -3
-2 -1 -2 -0 1 1 1 1 1 0 0 0 0 0 0 0 -0 -0 -0 -0 -0 -0 -0 -0 -1 -1 -1 -1 -1 -1 -1 -1 -1 -2 -2 -2 -2 -3 -3 -3 -3 -3 -3 -3
-0 0 0 0 0 0 0 0 0 0 0 0 -0 -0 -0 -0 -0 -1 -1 -1 -1 -1 -1 -1 -1 -1 -1 -1 -1 -2 -2 -2 -2 -2 -2 -3 -3 -3 -3 -3 -4 -4 -4 -4
-0 -1 -1 -0 -0 -0 -0 -0 -0 -0 -0 -0 -0 -1 -1 -1 -1 -1 -1 -1 -1 -1 -1 -1 -1 -1 -2 -2 -2 -2 -2 -2 -2 -2 -3 -3 -3 -4 -4 -4 -4 -4 -4 -4
-1 -1 -1 -1 -1 -1 -1 -1 -1 -1 -1 -1 -1 -1 -1 -1 -1 -1 -1 -1 -1 -1 -1 -2 -2 -2 -2 -2 -3 -3 -3 -3 -3 -3 -3 -4 -4 -4 -4 -4 -4 -4 -4 -4
-1 -1 -1 -2 -1 -1 -1 -2 -2 -2 -2 -2 -2 -2 -2 -2 -2 -2 -2 -2 -2 -2 -2 -2 -2 -2 -3 -3 -3 -3 -3 -3 -3 -4 -4 -4 -4 -4 -4 -5 -5 -5 -5 -5
-3 -3 -2 -2 -2 -2 -2 -2 -2 -2 -2 -2 -2 -2 -2 -2 -2 -2 -2 -2 -2 -2 -2 -2 -2 -3 -3 -3 -3 -3 -3 -4 -4 -4 -4 -4 -4 -5 -5 -5 -5 -5 -5 -5
-2 -2 -3 -3 -3 -3 -2 -2 -3 -3 -3 -3 -3 -3 -3 -3 -3 -2 -2 -2 -2 -2 -2 -3 -3 -3 -3 -3 -3 -4 -4 -4 -4 -4 -5 -5 -5 -5 -5 -5 -6 -6 -6 -6
-2 -3 -3 -3 -3 -3 -3 -3 -3 -3 -3 -3 -3 -3 -3 -3 -3 -3 -3 -3 -3 -3 -3 -3 -3 -3 -4 -4 -4 -4 -4 -4 -5 -5 -5 -5 -5 -5 -6 -6 -6 -6 -6 -6
-3 -3 -3 -3 -3 -4 -3 -3 -3 -3 -3 -3 -3 -3 -3 -3 -3 -3 -3 -3 -3 -3 -3 -3 -4 -4 -4 -4 -4 -4 -5 -5 -5 -5 -5 -6 -6 -6 -6 -6 -6 -6 -7 -7
-3 -3 -4 -4 -4 -4 -4 -4 -4 -3 -3 -4 -4 -4 -4 -4 -4 -4 -4 -4 -4 -4 -4 -4 -4 -4 -4 -4 -5 -5 -5 -5 -5 -5 -6 -6 -6 -6 -6 -6 -7 -7 -7 -7
-4 -4 -4 -4 -4 -4 -4 -4 -4 -4 -4 -4 -4 -4 -4 -4 -4 -4 -4 -4 -4 -4 -4 -4 -4 -4 -5 -5 -5 -5 -5 -5 -5 -6 -6 -6 -6 -6 -6 -7 -7 -7 -7 -7
-4 -4 -4 -5 -5 -5 -5 -5 -5 -5 -4 -4 -4 -4 -4 -5 -5 -5 -5 -4 -5 -5 -5 -5 -5 -5 -5 -5 -5 -5 -6 -6 -6 -6 -6 -6 -6 -7 -7 -7 -7 -7 -7 -7
-4 -5 -5 -5 -5 -5 -5 -5 -5 -5 -5 -5 -5 -5 -5 -5 -5 -5 -5 -5 -5 -5 -5 -5 -5 -5 -5 -5 -6 -6 -6 -6 -6 -6 -6 -7 -7 -7 -7 -7 -7 -7 -7 -7
-5 -5 -5 -5 -5 -5 -5 -5 -5 -5 -5 -5 -5 -5 -5 -5 -5 -5 -5 -5 -5 -5 -5 -5 -6 -6 -6 -6 -6 -6 -6 -6 -7 -7 -7 -7 -7 -7 -7 -7 -8 -8 -8 -8
-5 -5 -6 -6 -6 -6 -6 -6 -6 -6 -6 -6 -6 -6 -6 -6 -6 -6 -6 -6 -6 -6 -6 -6 -6 -6 -6 -6 -6 -6 -7 -7 -7 -7 -7 -7 -7 -8 -8 -8 -8 -8 -8 -8
-6 -6 -6 -6 -6 -6 -6 -6 -6 -6 -6 -6 -6 -6 -6 -6 -6 -6 -6 -6 -6 -6 -6 -6 -6 -6 -6 -7 -7 -7 -7 -7 -7 -7 -8 -8 -8 -8 -8 -8 -8 -8 -8 -8
Wind_Speed
6 6 4 7 7 7 9 9 9 10 11 14 9 8 6 5 4 4 4 4 4 4 4 4 3 3 3 2 2 3 3 3 3 3 2 2 2 1 1 1 1 1 1 0
5 5 6 8 10 10 11 10 11 11 15 12 7 4 5 5 5 6 6 6 5 5 4 4 4 4 3 3 3 3 3 3 3 3 2 2 2 2 2 1 1 1 1 0
4 4 3 8 10 11 8 8 9 13 13 6 5 6 6 6 6 7 7 6 6 6 6 5 5 5 5 4 3 3 3 3 3 3 3 2 2 2 2 2 1 0 0 1
2 1 7 7 2 6 8 9 9 8 8 6 7 7 6 6 6 7 6 6 6 5 5 4 4 4 3 3 3 4 3 3 3 4 3 3 2 2 2 1 1 1 1 1
3 4 8 7 3 4 6 7 7 10 10 7 5 5 6 5 5 6 6 5 5 5 4 3 4 4 3 3 3 3 4 4 4 4 4 3 3 3 2 1 1 1 1 1
3 4 6 6 3 1 2 5 5 6 8 5 1 3 6 4 3 4 4 3 3 3 2 3 3 3 4 4 4 4 5 4 4 4 5 4 4 3 2 2 2 2 1 2
5 6 7 5 2 2 3 6 4 3 5 4 5 6 5 4 3 2 2 2 2 2 2 3 3 4 4 4 5 5 3 3 3 4 4 4 3 3 2 2 2 2 2 2
5 5 8 3 4 5 6 3 3 3 3 4 5 5 5 4 3 2 2 2 1 1 2 2 3 4 4 5 4 3 3 3 3 3 3 3 4 3 3 3 2 2 2 2
8 8 5 4 5 5 3 4 5 4 4 4 4 5 5 4 4 3 3 3 2 2 2 3 3 4 5 5 3 3 3 3 3 3 3 3 4 4 3 3 3 3 2 2
5 8 7 7 6 6 6 6 6 5 5 4 5 6 5 5 4 4 3 3 2 2 3 3 3 3 5 4 3 4 4 4 3 3 3 3 3 3 4 4 3 3 3 3
7 7 6 6 7 8 7 6 6 6 5 6 6 6 5 5 5 4 4 3 3 3 4 5 3 3 3 3 4 4 4 4 3 3 4 3 3 4 4 5 5 5 4 4
8 6 6 7 6 5 6 7 8 7 7 5 6 6 6 5 5 4 4 3 3 4 4 4 4 4 3 3 4 5 4 3 3 3 3 3 3 2 5 5 6 7 6 5
8 6 6 8 7 6 7 8 7 7 7 7 5 5 5 5 5 4 4 4 5 5 5 4 3 4 3 3 4 4 4 4 3 3 4 4 3 3 3 3 4 5 6 6
7 5 6 7 8 7 7 7 5 5 5 5 5 4 4 5 5 5 5 5 5 4 4 4 3 4 3 3 3 3 3 4 4 3 3 3 4 3 3 3 2 2 4 5
7 7 8 7 7 6 5 4 5 6 5 5 4 4 5 5 6 6 5 4 3 3 4 3 4 4 2 3 3 4 3 2 2 2 3 3 3 3 3 3 3 2 2 3
6 6 6 6 8 7 6 5 6 7 6 6 5 5 5 5 5 5 4 3 3 4 4 4 4 4 2 3 3 3 3 4 3 2 2 2 3 3 3 3 3 3 3 2
4 6 6 7 8 8 7 7 7 8 7 7 6 5 4 4 4 4 4 3 3 4 4 4 4 3 2 3 3 3 2 3 3 2 2 3 3 3 3 3 3 3 3 3
7 8 8 8 8 9 8 7 7 7 6 6 5 4 4 4 5 5 3 2 1 2 3 3 2 2 2 3 3 2 3 2 2 2 2 2 2 2 2 3 3 3 3 3
6 7 7 7 7 7 7 7 7 6 5 4 4 5 5 5 5 3 2 2 2 2 3 2 2 2 2 3 3 2 3 3 2 2 2 3 2 2 2 2 3 3 3 3
5 5 6 6 6 5 6 6 5 5 4 4 4 4 4 4 3 2 2 2 3 3 2 2 2 2 2 3 3 2 3 3 2 2 2 2 2 2 2 2 2 2 2 2
6 5 5 5 6 5 5 4 4 4 4 4 4 4 4 3 2 2 2 2 2 2 2 2 1 1 2 2 3 2 2 2 2 2 2 2 2 1 2 2 2 2 2 2
5 5 5 5 5 5 4 3 3 3 3 2 2 2 2 2 2 1 2 2 2 2 0 1 1 2 2 3 2 2 2 2 2 2 2 2 2 2 2 2 2 2 2 2
4 4 4 4 4 4 4 2 2 2 2 2 2 2 2 2 2 2 1 1 1 1 1 1 1 3 4 2 2 2 2 2 2 1 1 1 1 2 2 2 2 2 2 2
4 4 4 3 3 2 3 3 2 1 1 1 1 1 2 1 0 1 1 1 1 1 1 2 3 4 4 2 2 2 2 1 1 1 1 1 1 1 1 1 2 2 2 3
4 3 3 2 2 2 2 2 1 1 1 1 1 1 0 1 1 1 1 1 2 2 2 2 4 4 3 2 2 2 1 1 1 1 1 0 0 0 1 1 1 2 2 2
3 3 3 3 2 2 2 1 1 1 1 1 1 1 1 1 2 2 2 2 3 4 3 2 3 3 3 3 2 2 2 1 2 2 1 1 1 1 1 1 2 2 2 3
3 2 2 2 2 1 1 1 0 1 0 0 1 1 1 2 2 3 3 3 3 3 3 3 3 3 3 3 3 2 2 2 2 2 1 1 1 1 1 2 2 2 2 3
Wind_Direction
255 266 243 242 239 220 219 217 223 248 252 264 266 264 266 260 251 244 245 244 239 238 240 236 233 224 208 203 187 176 173 184 197 185 167 159 154 153 141 138 146 151 138 115
275 271 257 263 250 230 237 238 240 257 267 263 266 264 264 252 242 243 245 245 245 242 236 233 230 229 223 214 199 175 184 201 193 169 165 167 166 160 147 136 117 115 132 206
269 295 310 268 236 217 223 223 214 237 252 271 276 268 259 255 247 241 244 243 239 236 234 232 227 217 216 217 192 180 194 198 188 178 177 178 171 160 159 154 135 153 215 213
259 15 248 251 221 204 218 238 228 245 263 262 259 272 265 247 236 247 246 243 238 232 236 237 228 217 210 196 184 188 195 196 192 184 187 180 171 180 183 171 175 206 234 240
191 238 273 288 265 190 206 260 238 239 259 270 287 313 292 252 232 239 243 240 235 231 229 226 223 209 193 193 189 191 204 205 199 188 187 184 192 199 194 183 203 219 211 214
188 218 249 264 287 237 136 282 267 227 251 267 303 294 282 288 262 253 260 248 235 228 218 220 226 193 187 201 197 211 216 211 200 189 190 196 201 202 197 194 210 211 230 227
213 234 260 267 276 127 170 263 296 240 247 228 220 237 272 298 293 272 277 271 240 218 221 227 214 183 197 209 220 223 210 200 200 197 198 197 198 197 189 196 199 215 243 253
188 220 254 236 141 186 234 282 300 285 262 245 253 274 287 286 285 292 295 284 252 237 256 252 210 189 207 226 228 210 194 198 203 202 203 196 185 195 192 186 197 220 237 261
200 222 253 195 215 247 263 278 283 279 278 266 265 272 278 280 279 276 262 263 251 226 255 268 234 201 215 233 212 193 194 205 206 204 205 197 189 193 193 191 202 220 227 245
248 261 261 255 261 272 262 261 268 268 271 261 261 267 270 273 277 275 267 260 250 228 243 260 247 226 224 223 202 188 200 209 208 199 203 199 198 197 197 201 209 218 225 238
252 271 289 267 244 256 266 268 269 269 260 253 253 263 262 267 270 268 270 264 245 235 242 254 252 242 236 219 192 191 201 207 208 207 204 202 204 208 209 214 210 212 221 224
238 241 236 267 269 264 264 268 268 270 273 263 240 252 262 264 263 262 265 262 257 250 249 254 251 249 246 220 194 190 199 208 209 207 206 201 203 226 232 226 233 233 234 234
246 258 251 270 278 271 267 271 271 262 259 266 261 247 252 262 264 263 262 256 249 249 249 248 248 253 249 220 198 197 203 207 206 206 203 197 198 204 229 244 242 241 245 250
256 266 272 269 270 275 272 273 274 274 266 258 259 256 250 256 262 260 259 257 252 249 249 243 241 251 247 211 197 204 209 211 204 200 195 195 201 205 208 213 233 255 255 258
257 246 253 272 281 285 285 285 288 286 283 279 266 256 252 254 258 261 262 258 252 250 249 242 242 253 238 199 194 198 198 196 188 184 185 190 194 197 204 211 223 241 260 263
272 271 268 271 276 281 283 279 275 276 276 274 273 268 263 257 259 264 259 237 232 246 247 240 243 243 212 191 185 186 193 192 179 173 173 179 186 192 201 208 218 229 240 247
268 276 278 281 280 279 273 267 264 267 270 268 267 271 272 268 267 264 265 256 245 247 242 233 235 230 207 191 183 184 177 182 183 176 179 185 189 198 205 208 218 233 246 248
239 249 255 261 269 274 278 275 269 265 264 266 268 261 255 251 252 259 261 265 285 285 260 235 217 205 199 186 179 173 169 171 174 177 180 186 193 198 204 212 222 236 253 261
264 264 266 267 266 265 268 271 269 266 266 261 254 252 252 252 250 248 232 219 233 258 262 229 209 185 191 193 176 162 164 167 172 176 179 198 205 203 208 216 228 236 241 245
281 280 280 280 279 269 268 271 271 270 264 249 245 249 255 254 238 219 213 236 240 237 228 216 191 185 189 189 171 161 166 167 169 173 179 188 198 210 215 222 229 238 241 244
292 294 296 295 294 289 276 268 264 269 268 247 232 233 240 245 217 189 188 253 267 227 215 203 173 179 190 176 162 153 160 163 169 175 185 196 204 215 223 229 236 239 241 246
293 293 295 298 300 301 296 280 265 267 269 257 236 213 202 209 205 206 227 230 236 236 204 165 166 180 168 149 141 148 154 161 167 170 183 193 200 215 230 238 242 248 247 247
291 289 291 295 294 294 302 301 281 257 249 243 219 202 198 201 196 192 246 244 212 199 116 143 152 144 133 117 116 125 135 146 158 172 180 188 202 214 226 240 247 249 252 258
299 296 295 299 303 306 312 316 322 314 288 285 219 184 170 167 231 238 206 196 179 122 103 125 120 117 108 96 104 108 118 130 142 148 147 159 200 227 237 244 256 261 260 261
303 302 309 317 317 303 296 313 347 14 34 40 38 45 111 171 179 156 124 128 126 98 89 101 101 97 88 91 95 95 92 96 105 107 101 94 285 274 268 268 268 269 269 268
306 301 300 295 286 289 296 304 322 336 31 47 29 41 60 79 92 93 91 86 88 88 79 72 74 77 77 83 86 83 76 65 57 63 64 52 29 1 316 297 286 282 280 281
312 313 319 327 326 320 310 300 290 310 318 120 73 55 72 82 84 83 82 80 80 75 69 66 64 65 68 71 71 66 59 53 51 48 39 24 7 340 319 307 304 303 301 298
Height
1481 1479 1479 1477 1477 1479 1478 1476 1476 1466 1464 1452 1451 1450 1449 1448 1448 1448 1448 1448 1448 1448 1449 1450 1450 1450 1450 1451 1452 1453 1453 1455 1456 1457 1458 1458 1459 1460 1461 1461 1462 1462 1462 1462
1479 1477 1476 1474 1471 1472 1472 1470 1468 1465 1457 1447 1447 1447 1446 1446 1446 1445 1445 1445 1445 1446 1446 1447 1447 1447 1448 1448 1449 1450 1451 1452 1453 1454 1455 1456 1456 1457 1458 1458 1459 1459 1459 1460
1478 1477 1474 1470 1463 1464 1464 1461 1460 1457 1448 1445 1446 1444 1443 1443 1442 1442 1442 1442 1442 1443 1443 1444 1444 1445 1445 1446 1447 1447 1448 1449 1450 1451 1452 1452 1453 1454 1454 1455 1456 1456 1456 1457
1479 1478 1475 1455 1454 1454 1455 1453 1453 1448 1444 1443 1443 1441 1440 1440 1439 1439 1439 1439 1439 1440 1440 1441 1442 1442 1443 1443 1444 1444 1445 1446 1447 1448 1448 1449 1450 1451 1451 1452 1452 1453 1453 1454
1480 1478 1466 1455 1452 1452 1453 1449 1445 1444 1441 1441 1440 1439 1437 1436 1436 1436 1437 1437 1437 1437 1438 1438 1439 1439 1440 1440 1441 1441 1442 1442 1443 1444 1445 1446 1446 1447 1448 1448 1449 1449 1450 1451
1478 1474 1464 1451 1448 1447 1450 1448 1440 1439 1438 1438 1440 1442 1436 1433 1433 1433 1434 1434 1434 1434 1435 1435 1436 1436 1436 1436 1437 1437 1438 1439 1440 1441 1441 1442 1443 1444 1445 1445 1446 1446 1447 1447
1474 1471 1459 1449 1447 1447 1452 1445 1438 1436 1436 1436 1437 1436 1434 1432 1431 1431 1431 1431 1431 1431 1431 1432 1432 1432 1432 1433 1433 1434 1435 1436 1437 1437 1438 1438 1439 1440 1441 1442 1442 1442 1443 1443
1470 1468 1457 1445 1446 1447 1442 1438 1437 1435 1434 1434 1432 1431 1430 1429 1429 1429 1428 1429 1429 1428 1428 1429 1429 1429 1429 1429 1430 1431 1432 1432 1433 1434 1434 1435 1435 1436 1437 1438 1438 1439 1439 1439
1456 1450 1442 1440 1439 1438 1438 1436 1435 1434 1433 1432 1430 1429 1428 1427 1426 1426 1426 1426 1426 1425 1425 1425 1425 1425 1425 1426 1427 1427 1428 1428 1429 1430 1431 1431 1432 1432 1433 1434 1434 1435 1435 1435
1450 1442 1438 1437 1436 1435 1435 1433 1432 1431 1430 1429 1428 1427 1425 1424 1424 1423 1423 1423 1422 1422 1421 1421 1422 1422 1422 1423 1423 1423 1424 1424 1425 1426 1426 1427 1428 1428 1429 1430 1430 1431 1431 1432
1445 1438 1435 1432 1431 1431 1431 1430 1428 1427 1427 1426 1425 1423 1422 1421 1420 1420 1419 1419 1419 1418 1417 1417 1418 1418 1418 1419 1419 1419 1420 1420 1421 1422 1423 1423 1424 1424 1425 1426 1427 1428 1428 1428
1436 1432 1432 1428 1427 1427 1426 1425 1424 1423 1422 1421 1421 1420 1419 1418 1417 1416 1416 1415 1415 1414 1414 1413 1414 1414 1414 1415 1415 1415 1416 1416 1417 1418 1419 1419 1420 1421 1422 1423 1423 1424 1425 1425
1428 1427 1427 1425 1424 1423 1422 1420 1420 1419 1418 1417 1416 1416 1415 1414 1413 1413 1412 1411 1411 1410 1410 1410 1410 1410 1410 1411 1411 1411 1412 1412 1413 1414 1414 1415 1416 1417 1417 1419 1420 1420 1421 1421
1424 1424 1422 1420 1419 1418 1418 1416 1415 1414 1413 1412 1412 1411 1410 1409 1409 1408 1408 1407 1407 1406 1406 1406 1406 1406 1406 1407 1407 1408 1408 1409 1409 1410 1411 1412 1413 1413 1414 1414 1415 1416 1417 1418
1420 1419 1418 1416 1415 1414 1413 1412 1411 1409 1408 1408 1407 1406 1406 1405 1404 1403 1403 1403 1402 1402 1402 1402 1401 1402 1402 1403 1403 1404 1405 1405 1406 1407 1408 1409 1410 1410 1411 1411 1412 1412 1413 1414
1415 1414 1413 1412 1410 1409 1409 1407 1406 1404 1404 1403 1402 1402 1401 1401 1400 1399 1399 1399 1398 1398 1398 1398 1398 1398 1399 1399 1400 1401 1401 1402 1403 1404 1405 1405 1406 1407 1407 1408 1408 1409 1409 1410
1411 1409 1408 1407 1405 1404 1404 1403 1402 1400 1399 1398 1398 1397 1396 1396 1395 1395 1395 1395 1395 1395 1395 1394 1394 1395 1395 1396 1397 1398 1399 1399 1400 1401 1402 1402 1403 1404 1404 1405 1405 1405 1406 1406
1407 1406 1405 1403 1401 1400 1398 1398 1397 1396 1395 1394 1393 1392 1392 1391 1391 1391 1391 1391 1391 1391 1391 1392 1392 1392 1392 1393 1394 1395 1396 1397 1398 1398 1399 1400 1400 1401 1401 1402 1402 1402 1402 1403
1403 1401 1400 1398 1397 1395 1394 1393 1392 1391 1390 1389 1389 1388 1388 1388 1387 1387 1388 1388 1387 1388 1389 1389 1389 1390 1390 1391 1392 1392 1393 1394 1395 1396 1397 1397 1398 1398 1398 1399 1399 1399 1399 1399
1398 1397 1395 1394 1392 1391 1389 1388 1387 1386 1386 1385 1385 1384 1384 1384 1384 1384 1384 1385 1385 1386 1386 1387 1387 1387 1388 1388 1389 1390 1391 1392 1393 1393 1394 1395 1395 1396 1396 1396 1396 1396 1396 1396
1394 1393 1391 1389 1388 1386 1385 1384 1383 1382 1381 1381 1381 1380 1380 1381 1381 1381 1381 1382 1383 1384 1384 1384 1385 1385 1386 1386 1387 1388 1389 1390 1391 1391 1392 1392 1393 1393 1393 1394 1394 1394 1393 1393
1391 1389 1387 1386 1384 1382 1381 1381 1379 1378 1378 1378 1378 1378 1378 1378 1378 1379 1379 1380 1381 1381 1382 1382 1382 1383 1384 1384 1385 1386 1387 1388 1389 1389 1390 1390 1390 1391 1391 1391 1391 1391 1390 1390
1388 1386 1385 1383 1381 1380 1378 1378 1377 1376 1375 1375 1375 1375 1375 1376 1376 1377 1377 1378 1379 1379 1380 1381 1381 1382 1383 1383 1384 1385 1386 1386 1387 1387 1388 1388 1388 1388 1388 1388 1388 1388 1388 1387
1385 1383 1382 1380 1379 1377 1376 1375 1375 1374 1374 1373 1373 1373 1374 1374 1375 1376 1376 1377 1378 1378 1379 1380 1381 1381 1382 1382 1383 1384 1384 1385 1385 1386 1386 1386 1387 1386 1386 1386 1386 1385 1385 1384
1383 1381 1380 1378 1377 1375 1374 1373 1373 1373 1372 1372 1372 1372 1373 1373 1374 1375 1375 1376 1377 1378 1378 1379 1380 1381 1381 1382 1382 1383 1383 1384 1384 1384 1385 1385 1385 1385 1384 1384 1383 1383 1382 1381
1381 1379 1378 1376 1375 1374 1373 1372 1372 1371 1371 1371 1371 1371 1372 1373 1374 1374 1375 1376 1377 1377 1378 1379 1380 1380 1381 1382 1382 1383 1383 1383 1383 1383 1383 1383 1383 1383 1382 1382 1381 1381 1380 1379
1379 1378 1376 1375 1374 1373 1372 1372 1371 1370 1370 1370 1370 1371 1372 1373 1373 1374 1375 1376 1376 1377 1378 1379 1380 1381 1381 1382 1382 1382 1382 1382 1383 1383 1382 1382 1382 1381 1381 1380 1379 1379 1378 1377